Baltic Betina — 9HDW8 — position and weather

sailwx.info

Track history (hours):
 
Tides and Currents Weather Stations Pressure Air Temp Water Temp Dewpoint Dewpoint Depression Visibility Wind Speed Wind Dir Waves Ship Positions

Baltic Betina

Last reported at 2014-Jul-29 10:25 UTC. Time now 2014-Jul-29 23:00 UTC.
Position N 59°57' E 021°41'.

Length 90 m; draft 5.5 m.

Type: Ship. MMSI: 215869000.

Date/timePositionNaut miles runAvg speedWind from/ knotsBaromVisibWave heightAir tempDewpointWater temp
2014-Jul-29 10:25N 59°57' E 021°41'1011.2
2014-Jul-29 09:33N 59°51' E 021°26'1010.5
2014-Jul-29 08:33N 59°42' E 021°18'9811.5
2014-Jul-29 00:04N 58°30' E 019°10'711.5
2014-Jul-28 23:27N 58°24' E 019°01'2411.0
2014-Jul-28 21:14N 58°05' E 018°34'1211.2
2014-Jul-28 20:11N 57°55' E 018°22'711.4
2014-Jul-28 19:33N 57°49' E 018°15'1111.2
2014-Jul-28 18:33N 57°39' E 018°04'1111.1
2014-Jul-28 17:33N 57°30' E 017°53'1111.3
2014-Jul-28 16:33N 57°19' E 017°44'1211.6
2014-Jul-28 15:33N 57°09' E 017°35'1211.6
2014-Jul-28 14:33N 56°58' E 017°27'1311.6
2014-Jul-28 13:28N 56°46' E 017°19'1211.3
2014-Jul-28 12:26N 56°35' E 017°12'2611.3
2014-Jul-28 10:08N 56°11' E 016°55'2911.2
2014-Jul-28 07:34N 55°47' E 016°26'2311.3
2014-Jul-28 05:33N 55°28' E 016°03'1111.3
2014-Jul-28 04:34N 55°19' E 015°52'1111.3
2014-Jul-28 03:34N 55°09' E 015°42'1511.3
2014-Jul-28 02:15N 54°57' E 015°27'811.2
2014-Jul-28 01:34N 54°51' E 015°20'1111.2
2014-Jul-28 00:34N 54°41' E 015°09'1111.1
2014-Jul-27 23:33N 54°32' E 014°58'1211.0
2014-Jul-27 22:28N 54°22' E 014°47'1010.8
2014-Jul-27 21:33N 54°15' E 014°37'1010.2
2014-Jul-27 20:33N 54°07' E 014°25'10 9.5
2014-Jul-27 19:33N 53°59' E 014°16'5 5.1
2014-Jul-27 18:33N 53°54' E 014°16'0 0.0
2014-Jul-27 17:31N 53°54' E 014°16'0 0.0
2014-Jul-27 16:25N 53°54' E 014°16'0 0.0
2014-Jul-27 15:31N 53°54' E 014°16'0 0.0
2014-Jul-27 14:31N 53°54' E 014°16'0 0.0
2014-Jul-27 13:31N 53°54' E 014°16'0 0.0
2014-Jul-27 12:31N 53°54' E 014°16'0 0.0
2014-Jul-27 11:31N 53°54' E 014°16'0 0.0
2014-Jul-27 10:31N 53°54' E 014°16'0 0.0
2014-Jul-27 09:31N 53°54' E 014°16'5 4.8
2014-Jul-27 08:33N 53°58' E 014°16'1111.4
2014-Jul-27 07:33N 54°09' E 014°08'1111.4
2014-Jul-27 06:33N 54°19' E 013°58'1211.6
2014-Jul-27 05:33N 54°29' E 013°49'1211.5
2014-Jul-27 04:33N 54°39' E 013°38'1111.0
2014-Jul-27 03:33N 54°44' E 013°21'1111.3
2014-Jul-27 02:33N 54°48' E 013°04'1211.8
2014-Jul-27 01:33N 54°59' E 012°53'1211.8
2014-Jul-27 00:33N 55°09' E 012°42'1111.2
2014-Jul-26 23:33N 55°20' E 012°38'1111.4
2014-Jul-26 22:33N 55°31' E 012°42'1010.1
2014-Jul-26 21:33N 55°41' E 012°41'1110.9
2014-Jul-26 20:33N 55°52' E 012°40'1110.8
2014-Jul-26 19:33N 56°03' E 012°38'10 9.8
2014-Jul-26 18:33N 56°08' E 012°24'1010.4
2014-Jul-26 17:33N 56°06' E 012°06'1210.1
2014-Jul-26 16:21N 55°58' E 011°50'0 0.0
2014-Jul-26 14:04N 55°58' E 011°51'3810.5
2014-Jul-26 10:28N 56°24' E 011°02'4 1.8
2014-Jul-26 08:27N 56°25' E 010°55'0 0.0
2014-Jul-26 07:27N 56°25' E 010°55'0 0.0
2014-Jul-26 06:27N 56°25' E 010°55'0 0.0
2014-Jul-26 05:33N 56°25' E 010°55'0 0.0
2014-Jul-26 03:20N 56°25' E 010°55'0 0.0
2014-Jul-26 01:08N 56°25' E 010°55'0 0.0
2014-Jul-26 00:32N 56°25' E 010°55'0 0.0
2014-Jul-25 23:32N 56°25' E 010°55'0 0.0
2014-Jul-25 22:20N 56°25' E 010°55'0 0.0
2014-Jul-25 21:32N 56°25' E 010°55'5 5.0
2014-Jul-25 20:33N 56°29' E 010°60'1111.3
2014-Jul-25 19:33N 56°41' E 011°00'1310.8
2014-Jul-25 18:23N 56°51' E 010°47'1011.5
2014-Jul-25 17:33N 57°00' E 010°43'1111.5
2014-Jul-25 16:33N 57°12' E 010°42'1111.5
2014-Jul-25 15:33N 57°23' E 010°42'1211.6
2014-Jul-25 14:33N 57°35' E 010°43'1111.3
2014-Jul-25 13:33N 57°46' E 010°43'1211.8
2014-Jul-25 12:33N 57°48' E 010°21'1211.9
2014-Jul-25 11:33N 57°49' E 009°59'3611.8
2014-Jul-25 08:28N 57°52' E 008°51'7610.5
2014-Jul-25 01:16N 58°06' E 006°30'911.9
2014-Jul-25 00:33N 58°12' E 006°19'1212.0
2014-Jul-24 23:33N 58°20' E 006°02'1111.3
2014-Jul-24 22:33N 58°27' E 005°46'1111.4
2014-Jul-24 21:33N 58°36' E 005°32'1211.9
2014-Jul-24 20:34N 58°47' E 005°24'10 9.7
2014-Jul-24 19:34N 58°55' E 005°35'0 0.1
2014-Jul-24 18:31N 58°55' E 005°35'2 1.8
2014-Jul-24 17:34N 58°57' E 005°33'1111.0
2014-Jul-24 16:34N 59°07' E 005°27'1110.7
2014-Jul-24 15:29N 59°18' E 005°20'1 0.4
2014-Jul-24 13:32N 59°19' E 005°19'4 3.7
2014-Jul-24 12:33N 59°22' E 005°18'5210.1
2014-Jul-24 07:23N 60°14' E 005°09'910.4
2014-Jul-24 06:32N 60°23' E 005°11'9 6.8
2014-Jul-24 05:13N 60°32' E 005°15'0 0.3
2014-Jul-24 04:33N 60°32' E 005°15'2 2.0
2014-Jul-24 03:33N 60°30' E 005°15'1110.0
2014-Jul-24 02:26N 60°19' E 005°12'49 2.1
2014-Jul-23 02:33N 59°30' E 005°13'1010.0
2014-Jul-23 01:33N 59°20' E 005°19'1010.1
2014-Jul-23 00:33N 59°11' E 005°22'9 9.2
2014-Jul-22 23:34N 59°04' E 005°34'8 8.1
2014-Jul-22 22:34N 58°60' E 005°48'9 8.8
2014-Jul-22 21:33N 58°51' E 005°45'0 0.0
2014-Jul-22 20:31N 58°51' E 005°45'0 0.0
2014-Jul-22 19:31N 58°51' E 005°45'2 1.8
2014-Jul-22 18:33N 58°53' E 005°45'9 9.2
2014-Jul-22 17:33N 59°01' E 005°38'9 9.1
2014-Jul-22 16:33N 58°53' E 005°32'1111.0
2014-Jul-22 15:33N 58°42' E 005°28'1212.3
2014-Jul-22 14:33N 58°31' E 005°40'1211.8
2014-Jul-22 13:33N 58°23' E 005°55'1212.4
2014-Jul-22 12:33N 58°15' E 006°13'1212.3
2014-Jul-22 11:33N 58°06' E 006°30'47 7.8
2014-Jul-22 05:28N 58°08' E 007°60'10 1.4
2014-Jul-21 22:25N 57°60' E 008°08'910.0
2014-Jul-21 21:33N 58°05' E 008°20'1110.9
2014-Jul-21 20:33N 58°13' E 008°35'310.8
2014-Jul-21 20:18N 58°15' E 008°39'810.9
2014-Jul-21 19:33N 58°20' E 008°51'4510.3
2014-Jul-21 15:08N 58°46' E 010°02'610.0
2014-Jul-21 14:33N 58°49' E 010°11'1010.5
2014-Jul-21 13:33N 58°55' E 010°28'1010.2
2014-Jul-21 12:33N 59°01' E 010°44'8 8.3
2014-Jul-21 11:33N 59°05' E 010°58'6 6.3
2014-Jul-21 10:33N 59°11' E 010°57'0 0.0
2014-Jul-21 09:33N 59°11' E 010°57'0 0.0
2014-Jul-21 08:33N 59°11' E 010°57'0 0.3
2014-Jul-21 07:33N 59°11' E 010°57'1111.1
2014-Jul-21 06:33N 59°00' E 010°59'1111.1
2014-Jul-21 05:33N 58°49' E 011°06'1311.3
2014-Jul-21 04:26N 58°38' E 010°58'1111.6
2014-Jul-21 03:27N 58°26' E 010°56'1111.7
2014-Jul-21 02:33N 58°16' E 010°54'1111.5
2014-Jul-21 01:33N 58°04' E 010°52'1212.2
2014-Jul-21 00:33N 57°52' E 010°49'1211.9
2014-Jul-20 23:33N 57°40' E 010°46'1111.2
2014-Jul-20 22:33N 57°29' E 010°45'1211.7
2014-Jul-20 21:33N 57°17' E 010°44'1111.2
2014-Jul-20 20:33N 57°06' E 010°44'2210.4
2014-Jul-20 18:24N 56°45' E 010°58'910.9
2014-Jul-20 17:33N 56°36' E 011°00'1111.3
2014-Jul-20 16:33N 56°25' E 010°60'69 6.7
2014-Jul-20 06:20N 55°31' E 009°44'4 5.7
2014-Jul-20 05:33N 55°26' E 009°43'1010.4
2014-Jul-20 04:33N 55°17' E 009°51'10 9.8
2014-Jul-20 03:33N 55°07' E 009°55'1212.0
2014-Jul-20 02:32N 54°58' E 010°09'1212.2
2014-Jul-20 01:33N 54°49' E 010°22'1211.7
2014-Jul-20 00:33N 54°43' E 010°40'1211.9
2014-Jul-19 23:33N 54°37' E 010°58'1212.2
2014-Jul-19 22:33N 54°34' E 011°18'1212.1
2014-Jul-19 21:34N 54°29' E 011°37'1211.9
2014-Jul-19 20:33N 54°26' E 011°57'1010.3
2014-Jul-19 19:33N 54°32' E 012°12'1111.4
2014-Jul-19 18:33N 54°40' E 012°25'1211.7
2014-Jul-19 17:33N 54°47' E 012°42'1211.7
2014-Jul-19 16:33N 54°46' E 013°03'1211.8
2014-Jul-19 15:33N 54°46' E 013°23'1010.5
2014-Jul-19 14:33N 54°41' E 013°39'1111.5
2014-Jul-19 13:33N 54°31' E 013°49'1111.2
2014-Jul-19 12:33N 54°21' E 013°58'1111.2
2014-Jul-19 11:33N 54°11' E 014°06'1111.1
2014-Jul-19 10:33N 54°01' E 014°16'  
Track history (hours):
 
Tides and Currents Weather Stations Pressure Air Temp Water Temp Dewpoint Dewpoint Depression Visibility Wind Speed Wind Dir Waves Ship Positions

Baltic Betina

Last reported at 2014-Jul-29 10:25 UTC. Time now 2014-Jul-29 23:00 UTC.
Position N 59°57' E 021°41'.

Length 90 m; draft 5.5 m.

Type: Ship. MMSI: 215869000.

Date/timePositionNaut miles runAvg speedWind from/ knotsBaromVisibWave heightAir tempDewpointWater temp
2014-Jul-29 10:25N 59°57' E 021°41'1011.2
2014-Jul-29 09:33N 59°51' E 021°26'1010.5
2014-Jul-29 08:33N 59°42' E 021°18'9811.5
2014-Jul-29 00:04N 58°30' E 019°10'711.5
2014-Jul-28 23:27N 58°24' E 019°01'2411.0
2014-Jul-28 21:14N 58°05' E 018°34'1211.2
2014-Jul-28 20:11N 57°55' E 018°22'711.4
2014-Jul-28 19:33N 57°49' E 018°15'1111.2
2014-Jul-28 18:33N 57°39' E 018°04'1111.1
2014-Jul-28 17:33N 57°30' E 017°53'1111.3
2014-Jul-28 16:33N 57°19' E 017°44'1211.6
2014-Jul-28 15:33N 57°09' E 017°35'1211.6
2014-Jul-28 14:33N 56°58' E 017°27'1311.6
2014-Jul-28 13:28N 56°46' E 017°19'1211.3
2014-Jul-28 12:26N 56°35' E 017°12'2611.3
2014-Jul-28 10:08N 56°11' E 016°55'2911.2
2014-Jul-28 07:34N 55°47' E 016°26'2311.3
2014-Jul-28 05:33N 55°28' E 016°03'1111.3
2014-Jul-28 04:34N 55°19' E 015°52'1111.3
2014-Jul-28 03:34N 55°09' E 015°42'1511.3
2014-Jul-28 02:15N 54°57' E 015°27'811.2
2014-Jul-28 01:34N 54°51' E 015°20'1111.2
2014-Jul-28 00:34N 54°41' E 015°09'1111.1
2014-Jul-27 23:33N 54°32' E 014°58'1211.0
2014-Jul-27 22:28N 54°22' E 014°47'1010.8
2014-Jul-27 21:33N 54°15' E 014°37'1010.2
2014-Jul-27 20:33N 54°07' E 014°25'10 9.5
2014-Jul-27 19:33N 53°59' E 014°16'5 5.1
2014-Jul-27 18:33N 53°54' E 014°16'0 0.0
2014-Jul-27 17:31N 53°54' E 014°16'0 0.0
2014-Jul-27 16:25N 53°54' E 014°16'0 0.0
2014-Jul-27 15:31N 53°54' E 014°16'0 0.0
2014-Jul-27 14:31N 53°54' E 014°16'0 0.0
2014-Jul-27 13:31N 53°54' E 014°16'0 0.0
2014-Jul-27 12:31N 53°54' E 014°16'0 0.0
2014-Jul-27 11:31N 53°54' E 014°16'0 0.0
2014-Jul-27 10:31N 53°54' E 014°16'0 0.0
2014-Jul-27 09:31N 53°54' E 014°16'5 4.8
2014-Jul-27 08:33N 53°58' E 014°16'1111.4
2014-Jul-27 07:33N 54°09' E 014°08'1111.4
2014-Jul-27 06:33N 54°19' E 013°58'1211.6
2014-Jul-27 05:33N 54°29' E 013°49'1211.5
2014-Jul-27 04:33N 54°39' E 013°38'1111.0
2014-Jul-27 03:33N 54°44' E 013°21'1111.3
2014-Jul-27 02:33N 54°48' E 013°04'1211.8
2014-Jul-27 01:33N 54°59' E 012°53'1211.8
2014-Jul-27 00:33N 55°09' E 012°42'1111.2
2014-Jul-26 23:33N 55°20' E 012°38'1111.4
2014-Jul-26 22:33N 55°31' E 012°42'1010.1
2014-Jul-26 21:33N 55°41' E 012°41'1110.9
2014-Jul-26 20:33N 55°52' E 012°40'1110.8
2014-Jul-26 19:33N 56°03' E 012°38'10 9.8
2014-Jul-26 18:33N 56°08' E 012°24'1010.4
2014-Jul-26 17:33N 56°06' E 012°06'1210.1
2014-Jul-26 16:21N 55°58' E 011°50'0 0.0
2014-Jul-26 14:04N 55°58' E 011°51'3810.5
2014-Jul-26 10:28N 56°24' E 011°02'4 1.8
2014-Jul-26 08:27N 56°25' E 010°55'0 0.0
2014-Jul-26 07:27N 56°25' E 010°55'0 0.0
2014-Jul-26 06:27N 56°25' E 010°55'0 0.0
2014-Jul-26 05:33N 56°25' E 010°55'0 0.0
2014-Jul-26 03:20N 56°25' E 010°55'0 0.0
2014-Jul-26 01:08N 56°25' E 010°55'0 0.0
2014-Jul-26 00:32N 56°25' E 010°55'0 0.0
2014-Jul-25 23:32N 56°25' E 010°55'0 0.0
2014-Jul-25 22:20N 56°25' E 010°55'0 0.0
2014-Jul-25 21:32N 56°25' E 010°55'5 5.0
2014-Jul-25 20:33N 56°29' E 010°60'1111.3
2014-Jul-25 19:33N 56°41' E 011°00'1310.8
2014-Jul-25 18:23N 56°51' E 010°47'1011.5
2014-Jul-25 17:33N 57°00' E 010°43'1111.5
2014-Jul-25 16:33N 57°12' E 010°42'1111.5
2014-Jul-25 15:33N 57°23' E 010°42'1211.6
2014-Jul-25 14:33N 57°35' E 010°43'1111.3
2014-Jul-25 13:33N 57°46' E 010°43'1211.8
2014-Jul-25 12:33N 57°48' E 010°21'1211.9
2014-Jul-25 11:33N 57°49' E 009°59'3611.8
2014-Jul-25 08:28N 57°52' E 008°51'7610.5
2014-Jul-25 01:16N 58°06' E 006°30'911.9
2014-Jul-25 00:33N 58°12' E 006°19'1212.0
2014-Jul-24 23:33N 58°20' E 006°02'1111.3
2014-Jul-24 22:33N 58°27' E 005°46'1111.4
2014-Jul-24 21:33N 58°36' E 005°32'1211.9
2014-Jul-24 20:34N 58°47' E 005°24'10 9.7
2014-Jul-24 19:34N 58°55' E 005°35'0 0.1
2014-Jul-24 18:31N 58°55' E 005°35'2 1.8
2014-Jul-24 17:34N 58°57' E 005°33'1111.0
2014-Jul-24 16:34N 59°07' E 005°27'1110.7
2014-Jul-24 15:29N 59°18' E 005°20'1 0.4
2014-Jul-24 13:32N 59°19' E 005°19'4 3.7
2014-Jul-24 12:33N 59°22' E 005°18'5210.1
2014-Jul-24 07:23N 60°14' E 005°09'910.4
2014-Jul-24 06:32N 60°23' E 005°11'9 6.8
2014-Jul-24 05:13N 60°32' E 005°15'0 0.3
2014-Jul-24 04:33N 60°32' E 005°15'2 2.0
2014-Jul-24 03:33N 60°30' E 005°15'1110.0
2014-Jul-24 02:26N 60°19' E 005°12'49 2.1
2014-Jul-23 02:33N 59°30' E 005°13'1010.0
2014-Jul-23 01:33N 59°20' E 005°19'1010.1
2014-Jul-23 00:33N 59°11' E 005°22'9 9.2
2014-Jul-22 23:34N 59°04' E 005°34'8 8.1
2014-Jul-22 22:34N 58°60' E 005°48'9 8.8
2014-Jul-22 21:33N 58°51' E 005°45'0 0.0
2014-Jul-22 20:31N 58°51' E 005°45'0 0.0
2014-Jul-22 19:31N 58°51' E 005°45'2 1.8
2014-Jul-22 18:33N 58°53' E 005°45'9 9.2
2014-Jul-22 17:33N 59°01' E 005°38'9 9.1
2014-Jul-22 16:33N 58°53' E 005°32'1111.0
2014-Jul-22 15:33N 58°42' E 005°28'1212.3
2014-Jul-22 14:33N 58°31' E 005°40'1211.8
2014-Jul-22 13:33N 58°23' E 005°55'1212.4
2014-Jul-22 12:33N 58°15' E 006°13'1212.3
2014-Jul-22 11:33N 58°06' E 006°30'47 7.8
2014-Jul-22 05:28N 58°08' E 007°60'10 1.4
2014-Jul-21 22:25N 57°60' E 008°08'910.0
2014-Jul-21 21:33N 58°05' E 008°20'1110.9
2014-Jul-21 20:33N 58°13' E 008°35'310.8
2014-Jul-21 20:18N 58°15' E 008°39'810.9
2014-Jul-21 19:33N 58°20' E 008°51'4510.3
2014-Jul-21 15:08N 58°46' E 010°02'610.0
2014-Jul-21 14:33N 58°49' E 010°11'1010.5
2014-Jul-21 13:33N 58°55' E 010°28'1010.2
2014-Jul-21 12:33N 59°01' E 010°44'8 8.3
2014-Jul-21 11:33N 59°05' E 010°58'6 6.3
2014-Jul-21 10:33N 59°11' E 010°57'0 0.0
2014-Jul-21 09:33N 59°11' E 010°57'0 0.0
2014-Jul-21 08:33N 59°11' E 010°57'0 0.3
2014-Jul-21 07:33N 59°11' E 010°57'1111.1
2014-Jul-21 06:33N 59°00' E 010°59'1111.1
2014-Jul-21 05:33N 58°49' E 011°06'1311.3
2014-Jul-21 04:26N 58°38' E 010°58'1111.6
2014-Jul-21 03:27N 58°26' E 010°56'1111.7
2014-Jul-21 02:33N 58°16' E 010°54'1111.5
2014-Jul-21 01:33N 58°04' E 010°52'1212.2
2014-Jul-21 00:33N 57°52' E 010°49'1211.9
2014-Jul-20 23:33N 57°40' E 010°46'1111.2
2014-Jul-20 22:33N 57°29' E 010°45'1211.7
2014-Jul-20 21:33N 57°17' E 010°44'1111.2
2014-Jul-20 20:33N 57°06' E 010°44'2210.4
2014-Jul-20 18:24N 56°45' E 010°58'910.9
2014-Jul-20 17:33N 56°36' E 011°00'1111.3
2014-Jul-20 16:33N 56°25' E 010°60'69 6.7
2014-Jul-20 06:20N 55°31' E 009°44'4 5.7
2014-Jul-20 05:33N 55°26' E 009°43'1010.4
2014-Jul-20 04:33N 55°17' E 009°51'10 9.8
2014-Jul-20 03:33N 55°07' E 009°55'1212.0
2014-Jul-20 02:32N 54°58' E 010°09'1212.2
2014-Jul-20 01:33N 54°49' E 010°22'1211.7
2014-Jul-20 00:33N 54°43' E 010°40'1211.9
2014-Jul-19 23:33N 54°37' E 010°58'1212.2
2014-Jul-19 22:33N 54°34' E 011°18'1212.1
2014-Jul-19 21:34N 54°29' E 011°37'1211.9
2014-Jul-19 20:33N 54°26' E 011°57'1010.3
2014-Jul-19 19:33N 54°32' E 012°12'1111.4
2014-Jul-19 18:33N 54°40' E 012°25'1211.7
2014-Jul-19 17:33N 54°47' E 012°42'1211.7
2014-Jul-19 16:33N 54°46' E 013°03'1211.8
2014-Jul-19 15:33N 54°46' E 013°23'1010.5
2014-Jul-19 14:33N 54°41' E 013°39'1111.5
2014-Jul-19 13:33N 54°31' E 013°49'1111.2
2014-Jul-19 12:33N 54°21' E 013°58'1111.2
2014-Jul-19 11:33N 54°11' E 014°06'1111.1
2014-Jul-19 10:33N 54°01' E 014°16'  

Dump ship's entire track history